Greensboro, NC

9:54 AM EST on December 03, 2016 (GMT -0500)
Piedmont Triad International

Weather History for KGSO - September, 2014

Change the Weather History Date:

Monday, September 15, 2014

  Actual Average Record
Temperature  
Mean Temperature 69 °F 70 °F  
Max Temperature 75 °F 80 °F 97 °F (1927)
Min Temperature 62 °F 61 °F 41 °F (1985)
Degree Days  
Heating Degree Days 0 1  
Month to date heating degree days 0 3  
Since 1 July heating degree days 0 4  
Cooling Degree Days 4 6  
Month to date cooling degree days 150 121  
Year to date cooling degree days 1403 1383  
Growing Degree Days 18 (Base 50)    
Moisture  
Dew Point 62 °F    
Average Humidity 81    
Maximum Humidity 93    
Minimum Humidity 68    
Precipitation  
Precipitation 0.00 in 0.14 in 1.94 in (1999)
Month to date precipitation 2.11 2.26  
Year to date precipitation 27.99 31.05  
Sea Level Pressure  
Sea Level Pressure 30.17 in    
Wind  
Wind Speed 3 mph (South)    
Max Wind Speed 9 mph    
Max Gust Speed 13 mph    
Visibility 10 miles    
Events Rain    
T = Trace of Precipitation, MM = Missing Value Source: NWS Daily Summary

Daily Weather History Graph

Daily Weather History Graph

Search for Another Location

Airport or City:

Trip Planner

Search our weather history database for the weather conditions in past years. The results will help you decide how hot, cold, wet, or windy it might be!

Date:

Astronomy

Sep. 15, 2014 Rise Set
Actual Time 7:02 AM EDT 7:27 PM EDT
Civil Twilight 6:36 AM EDT 7:52 PM EDT
Nautical Twilight 6:06 AM EDT 8:22 PM EDT
Astronomical Twilight 5:35 AM EDT 8:53 PM EDT
Moon No Moon Rise 1:50 PM EDT (9/15)
Length of Visible Light 13h 16m
Length of Day
12h 24m
Waning Gibbous, 54% of the Moon is Illuminated
Sep 15
Waning Gibbous
Sep 15
Last Quarter
Sep 24
New
Oct 1
First Quarter
Oct 8
Full

Hourly Weather History & Observations

Time (EDT) Temp. Dew Point Humidity Pressure Visibility Wind Dir Wind Speed Gust Speed Precip Events Conditions
12:54 AM 64.0 °F 57.0 °F 78% 30.22 in 10.0 mi Calm Calm - 0.00 in Rain Light Rain
1:54 AM 63.0 °F 59.0 °F 87% 30.21 in 10.0 mi Calm Calm - 0.00 in   Overcast
2:54 AM 63.0 °F 57.9 °F 84% 30.19 in 10.0 mi Calm Calm - N/A   Overcast
3:54 AM 64.0 °F 59.0 °F 84% 30.19 in 10.0 mi Calm Calm - N/A   Overcast
4:54 AM 64.0 °F 59.0 °F 84% 30.19 in 10.0 mi Calm Calm - N/A   Overcast
5:54 AM 62.1 °F 60.1 °F 93% 30.19 in 10.0 mi NNE 3.5 mph - N/A   Mostly Cloudy
6:23 AM 62.6 °F 59.0 °F 88% 30.21 in 10.0 mi ENE 3.5 mph - N/A   Overcast
6:54 AM 62.1 °F 60.1 °F 93% 30.21 in 10.0 mi Calm Calm - N/A   Overcast
7:34 AM 62.6 °F 59.0 °F 88% 30.24 in 10.0 mi Calm Calm - N/A   Mostly Cloudy
7:54 AM 63.0 °F 60.1 °F 90% 30.22 in 10.0 mi Calm Calm - N/A   Mostly Cloudy
8:54 AM 64.9 °F 60.1 °F 84% 30.23 in 10.0 mi Calm Calm - N/A   Overcast
9:39 AM 66.2 °F 60.8 °F 83% 30.24 in 10.0 mi Calm Calm - N/A   Overcast
9:54 AM 66.9 °F 60.1 °F 79% 30.22 in 10.0 mi Calm Calm - N/A   Overcast
10:54 AM 69.1 °F 61.0 °F 75% 30.22 in 10.0 mi South 3.5 mph - N/A   Mostly Cloudy
11:16 AM 69.8 °F 60.8 °F 73% 30.24 in 10.0 mi SSE 3.5 mph - N/A   Overcast
11:54 AM 71.1 °F 61.0 °F 70% 30.20 in 10.0 mi Calm Calm - N/A   Overcast
12:54 PM 72.0 °F 61.0 °F 68% 30.19 in 10.0 mi Calm Calm - N/A   Overcast
1:54 PM 73.9 °F 63.0 °F 68% 30.17 in 10.0 mi South 4.6 mph - N/A   Overcast
2:54 PM 75.0 °F 64.0 °F 69% 30.14 in 10.0 mi SSW 6.9 mph - N/A   Overcast
3:54 PM 73.0 °F 63.0 °F 71% 30.13 in 10.0 mi SSW 5.8 mph - N/A   Overcast
4:29 PM 73.4 °F 62.6 °F 69% 30.14 in 10.0 mi South 5.8 mph - N/A   Overcast
4:54 PM 72.0 °F 63.0 °F 73% 30.12 in 10.0 mi South 5.8 mph - N/A   Overcast
5:54 PM 72.0 °F 64.0 °F 76% 30.12 in 10.0 mi SSE 6.9 mph - N/A   Overcast
6:54 PM 71.1 °F 64.0 °F 78% 30.12 in 10.0 mi South 5.8 mph - N/A   Overcast
7:54 PM 71.1 °F 64.9 °F 81% 30.12 in 10.0 mi SSW 3.5 mph - N/A   Overcast
8:54 PM 70.0 °F 64.9 °F 84% 30.12 in 10.0 mi SSW 6.9 mph - N/A   Overcast
9:54 PM 69.1 °F 64.9 °F 87% 30.12 in 10.0 mi SSW 6.9 mph - N/A   Mostly Cloudy
10:54 PM 69.1 °F 64.9 °F 87% 30.11 in 10.0 mi SW 5.8 mph - N/A   Mostly Cloudy
11:01 PM 69.8 °F 64.4 °F 83% 30.13 in 10.0 mi SW 8.1 mph - N/A   Clear
11:54 PM 68.0 °F 64.9 °F 90% 30.09 in 9.0 mi SW 6.9 mph - N/A   Partly Cloudy